Back to catalog

CZ-12 R/B

AliveLEO
NORAD 67531·ROCKET BODY·🇨🇳 China

Launched Jan 19, 2026 from Wenchang Space Launch Site

Loading…

Next Passes (next 24 hours)

TLE

FreshSource: Space-Track

Epoch: Sep 14, 2026, 00:52 UTC

1 67531U 26013K   26257.03656118  .00000015  00000-0  85967-4 0  9991
2 67531  49.9918 279.4672 0068820 224.9518 134.5806 14.14485640 33646

Track CZ-12 R/B in real time with AllMySat

Download on the App Store